Location: Niedergestelen
(46.3129°N, 7.7822°E)
Time: 05:35:24
(UTC+00:00)

CZ-4B R/B - Pass Details

Date: 01 December 2020
Orbit: 390 x 458 km, 97.6° (Epoch: 18 January)

Event Time Altitude Azimuth Distance (km) Brightness Sun altitude
Exits shadow 18:30:40 12° 312° (NW) 1,374 4.3 -28.0°
Maximum altitude 18:31:30 13° 295° (WNW) 1,323 4.5 -28.2°
Drops below altitude 10° 18:32:55 10° 268° (W) 1,474 5.0 -28.4°
Sets 18:35:48 0° 238° (WSW) 2,346 5.9 -28.9°
